Location: Bégole
(43.1574°N, 0.3291°E)
Time: 11:38:52
(UTC+00:00)

SL-4 R/B - Visible Passes

Search period start: 28 September 2023 00:00
Search period end: 08 October 2023 00:00
Orbit: 419 x 625 km, 51.6° (Epoch: 28 September)

Date Brightness Start Highest point End Pass type
(mag) Time Alt. Az. Time Alt. Az. Time Alt. Az.
28 Sep 4.1 03:25:51 18° ESE 03:25:51 18° ESE 03:26:49 10° ESE visible
28 Sep 3.2 05:01:00 15° WSW 05:02:04 17° SW 05:04:16 10° S visible
29 Sep 3.5 04:48:12 14° SW 04:48:12 14° SW 04:49:26 10° SSW visible
01 Oct 3.9 19:43:36 10° SSW 19:45:15 21° SSW 19:45:15 21° SSW visible
02 Oct 2.7 19:28:58 10° SSW 19:32:14 39° S 19:32:14 39° S visible
03 Oct 2.1 19:14:20 10° SW 19:18:34 53° SE 19:19:00 50° ESE visible
03 Oct 5.1 20:53:49 10° W 20:54:08 12° W 20:54:08 12° W visible
04 Oct 2.1 18:59:42 10° SW 19:04:01 60° SE 19:05:36 35° ENE visible
04 Oct 4.7 20:39:22 10° W 20:40:42 18° WNW 20:40:42 18° WNW visible
05 Oct 2.0 18:45:04 10° SW 18:49:27 69° SE 18:52:01 22° ENE visible
05 Oct 4.2 20:24:54 10° W 20:27:07 24° WNW 20:27:07 24° WNW visible
06 Oct 2.0 18:30:27 10° SW 18:34:52 78° SSE 18:38:19 15° ENE visible
06 Oct 3.9 20:10:25 10° W 20:13:23 29° NW 20:13:23 29° NW visible
07 Oct 2.1 18:15:50 10° SW 18:20:18 88° SE 18:24:28 10° ENE visible
07 Oct 3.6 19:55:56 10° WNW 19:59:33 30° NNW 19:59:33 30° NNW visible
